GFSSE_250_spd_057.txt.gz
Wind_Speed
80 80 78 76 79 77 79 82 76 76 78 75 78 79 77 77 80 80 80 78 82 84 83 86 88 88 89 88 88 87 83 82 83 82 80 79 78 77 75 75 74 76 75
77 75 74 75 75 75 74 81 70 67 71 72 76 74 73 74 74 79 75 76 74 71 78 79 88 91 89 90 89 87 87 84 83 83 82 83 82 80 79 79 78 77 78
74 77 75 75 75 76 74 77 68 65 67 69 67 69 66 64 59 57 63 67 65 67 73 81 83 82 82 87 88 89 86 84 85 85 86 85 84 82 83 81 80 79 79
71 69 70 71 73 74 74 74 69 65 68 68 67 67 68 64 62 59 60 64 69 68 67 69 75 79 74 73 81 89 88 87 84 86 86 85 83 81 81 81 81 79 78
65 61 63 66 68 71 71 68 69 62 63 67 66 67 64 59 57 57 57 53 57 56 54 51 55 62 64 64 58 62 70 74 82 81 82 80 81 80 82 80 79 78 74
57 50 45 41 44 60 66 65 66 58 57 61 61 61 52 49 43 42 46 43 40 38 40 40 37 37 42 50 47 47 45 57 66 73 73 76 77 74 72 72 77 71 72
39 30 35 35 33 38 44 51 56 55 54 57 58 52 48 38 36 37 35 31 29 28 29 25 23 24 22 23 25 31 26 26 33 42 48 53 62 61 59 60 55 54 49
18 17 10 15 23 30 35 41 47 48 48 52 55 48 40 41 35 36 31 27 19 21 23 20 18 18 16 19 19 28 25 23 27 30 31 34 35 40 41 38 41 41 42
35 22 24 17 14 24 30 33 31 36 41 47 49 48 36 42 33 31 25 20 17 20 18 19 13 14 14 14 17 18 20 23 22 25 27 25 26 25 28 30 35 36 37
27 32 37 26 11 15 28 28 31 29 28 42 41 42 45 41 33 29 24 25 23 24 24 21 17 17 17 15 12 19 21 21 24 28 27 24 26 27 29 31 34 34 39
26 26 28 23 21 9 20 26 27 35 36 36 41 47 44 42 33 31 29 30 30 32 29 29 24 16 17 21 19 22 28 27 32 32 33 30 27 30 33 36 36 40 48
28 29 36 28 20 38 32 36 39 39 46 47 50 48 49 38 29 29 36 38 33 33 29 35 31 23 23 26 23 28 34 33 33 37 38 32 33 37 37 38 40 40 43
24 30 33 27 33 41 41 40 42 43 45 49 49 53 50 35 36 33 35 36 28 32 34 38 38 41 39 34 32 34 32 35 39 38 39 36 38 39 40 41 45 45 47
30 34 35 34 34 43 47 45 42 38 42 44 41 41 41 35 36 35 41 42 37 41 43 37 41 42 33 36 37 35 39 38 31 37 39 41 42 44 44 48 47 49 50
36 40 35 34 36 42 46 43 35 36 39 39 40 38 40 36 40 33 39 46 32 40 35 34 34 40 39 34 38 39 32 33 35 42 48 45 46 48 46 49 50 53 54
43 41 38 38 36 44 43 47 36 41 40 47 42 39 36 35 43 39 41 37 36 36 38 33 36 35 39 39 40 39 39 40 46 49 52 48 47 52 50 53 52 52 55
48 39 47 37 42 39 50 47 42 38 40 42 45 44 47 45 43 44 39 33 34 33 37 43 37 40 40 42 41 42 43 44 49 55 48 50 52 54 51 50 50 54 57
49 48 48 43 42 45 46 48 44 40 39 41 45 48 50 44 45 46 39 39 37 42 40 39 40 41 42 48 48 45 51 53 53 56 56 56 52 52 51 52 55 54 53
49 58 48 46 53 41 46 43 49 41 36 41 47 46 46 50 55 54 47 45 45 43 39 39 42 45 48 51 51 50 56 56 60 59 56 59 50 49 55 52 50 52 57
43 59 61 52 52 55 48 44 46 51 47 45 46 46 45 43 41 50 47 45 44 48 43 45 51 54 58 60 60 58 63 62 65 57 58 55 51 49 47 49 52 57 59
31 50 59 62 54 52 48 45 40 48 49 50 52 48 42 45 42 45 50 48 45 50 54 57 59 61 61 61 63 58 62 63 61 58 53 46 48 48 48 53 55 59 64
16 27 46 66 65 59 58 56 47 45 44 57 56 55 56 52 52 53 51 53 58 62 64 67 69 68 70 65 64 65 64 57 57 63 49 51 49 52 56 54 57 62 65
12 15 24 25 50 68 62 68 65 57 58 56 54 57 55 60 63 64 65 67 67 65 63 65 69 63 63 60 62 56 50 56 63 51 53 56 60 60 59 58 56 56 60
16 12 14 13 19 40 75 68 68 69 67 62 62 58 57 58 62 58 58 60 62 64 65 63 57 57 55 52 51 54 54 56 47 49 55 57 56 56 56 56 55 62 68
20 19 16 14 9 18 35 56 56 64 71 70 62 63 58 57 58 55 57 59 56 51 49 46 52 52 52 51 53 55 53 53 53 57 59 57 57 50 53 58 63 68 70
13 19 18 18 14 9 13 23 30 42 54 72 65 64 61 62 63 62 58 57 58 60 53 50 52 52 51 55 55 55 55 59 55 59 55 50 53 58 63 66 68 72 75

GFSSE_250_spd_060.txt.gz
Wind_Speed
82 82 84 84 84 85 83 82 82 82 79 78 76 78 77 76 75 77 78 79 79 80 80 82 81 82 85 85 87 88 88 87 85 84 84 83 82 82 81 79 78 79 80
76 79 80 80 80 77 76 77 82 78 75 72 72 73 76 76 75 75 73 74 76 75 79 82 82 83 83 84 88 87 88 85 84 84 83 83 84 84 84 84 84 83 81
72 75 77 77 77 76 74 74 75 74 74 68 68 66 70 71 71 72 72 65 63 64 60 67 75 78 77 82 82 80 85 85 83 83 85 80 84 88 88 84 84 84 83
69 72 72 73 72 72 71 72 72 73 74 68 68 63 65 67 67 66 63 64 57 59 62 55 58 65 66 59 63 70 76 78 77 77 75 75 77 82 85 86 81 80 79
66 66 66 65 63 67 68 69 70 70 69 65 66 67 63 63 65 62 54 51 51 54 58 59 60 57 50 52 53 58 58 61 63 71 69 71 70 75 69 70 71 75 70
56 55 54 54 50 50 53 59 60 67 69 63 62 66 64 63 63 61 55 54 51 52 55 49 46 35 35 39 29 31 38 39 42 46 43 49 59 54 57 60 57 59 57
38 29 31 26 31 40 45 45 50 55 61 60 60 60 59 62 58 55 54 45 45 45 37 30 30 29 24 30 22 22 25 29 29 29 32 36 36 37 38 38 36 32 32
21 17 14 13 10 21 27 29 29 41 48 52 56 56 55 54 51 44 37 36 40 33 25 25 25 22 21 25 23 23 18 17 23 20 17 19 19 21 21 23 20 20 23
34 31 25 20 17 7 18 8 15 26 33 42 47 50 51 50 45 36 36 37 33 28 18 15 15 13 16 18 17 18 17 10 11 11 20 27 25 19 17 17 22 24 27
38 38 26 34 29 23 24 25 20 29 29 32 39 44 49 49 43 35 34 36 31 24 22 21 19 14 18 22 19 15 14 12 10 15 30 26 28 19 18 19 23 25 27
30 34 32 36 34 27 22 20 27 25 22 26 34 41 46 45 39 41 35 30 26 26 26 23 23 21 27 20 23 20 26 22 27 28 33 31 28 31 26 22 26 27 30
21 26 35 40 34 30 30 29 22 26 22 16 28 35 39 42 41 45 38 35 29 28 31 27 27 26 31 27 28 29 33 31 30 29 35 35 29 32 30 33 32 33 34
27 28 39 34 33 31 41 25 27 29 19 22 22 30 37 48 47 46 37 34 28 32 36 28 25 27 30 34 35 32 33 33 32 33 36 37 32 40 39 36 35 41 41
24 31 43 47 37 39 45 36 32 40 31 33 35 28 37 48 50 49 35 31 28 35 35 26 31 31 31 35 38 39 34 33 33 35 39 36 36 40 37 37 43 46 47
26 33 43 42 38 37 40 45 39 40 35 40 41 43 42 43 51 51 35 35 34 38 37 36 39 34 29 35 37 41 37 37 35 37 40 37 39 39 41 43 47 54 50
28 32 41 43 35 32 35 46 46 42 41 45 42 44 47 47 49 49 34 31 38 40 36 37 40 36 36 38 47 46 39 38 40 37 42 43 41 48 49 48 51 54 48
33 36 36 33 35 25 38 43 44 41 38 37 47 45 47 39 39 47 37 37 37 39 38 35 35 28 35 34 41 37 37 40 41 44 48 49 51 53 49 47 53 51 47
40 38 44 38 32 38 34 38 48 42 39 39 40 40 41 47 41 35 39 38 40 46 44 36 34 35 34 43 39 38 43 47 52 52 50 49 51 54 52 54 55 47 47
38 42 48 43 44 35 37 41 40 45 41 43 40 44 46 43 44 48 47 47 48 47 49 39 42 46 41 43 43 47 50 52 55 56 52 55 60 57 52 55 51 50 48
21 46 44 53 40 48 42 46 41 43 47 45 43 44 46 49 50 52 52 47 48 46 47 47 52 48 46 48 52 56 60 61 65 61 58 61 58 49 50 49 50 48 49
14 22 44 52 52 47 41 45 47 45 43 45 48 45 49 49 53 53 53 50 52 52 53 52 48 46 50 55 60 61 64 65 65 63 68 60 51 50 48 50 50 51 55
12 13 21 37 54 54 48 42 48 43 48 46 44 46 45 48 49 53 50 51 50 48 47 49 49 55 60 64 66 67 63 61 62 62 60 52 50 51 48 49 53 53 53
15 15 11 17 37 61 58 52 47 47 44 45 46 49 51 52 52 54 54 54 52 53 53 57 62 66 67 66 64 62 62 62 61 57 56 51 52 48 48 53 50 49 51
11 17 16 10 14 32 61 67 58 52 56 55 51 50 49 47 49 54 57 56 56 58 60 61 63 64 63 64 65 62 61 59 61 57 55 54 55 56 52 50 49 46 53
15 10 19 17 12 10 24 45 64 67 54 58 62 64 57 52 51 51 56 61 58 59 63 64 63 65 65 60 57 58 60 57 56 55 50 52 52 51 46 49 52 54 53
19 13 12 20 18 15 11 22 36 55 58 57 56 57 57 56 54 58 60 61 60 61 63 63 65 67 69 67 65 62 56 54 53 54 48 51 46 46 44 47 49 47 53

GFSSE_250_spd_063.txt.gz
Wind_Speed
83 83 84 85 85 86 87 85 84 85 84 81 81 80 77 77 76 75 74 76 77 77 78 78 78 79 80 79 80 80 81 81 82 83 83 84 84 86 85 86 84 83 82
75 77 76 81 83 83 84 83 82 84 84 81 81 78 77 77 77 76 75 75 75 75 76 76 78 80 77 78 80 81 81 79 81 80 80 83 83 85 84 85 83 85 85
73 76 74 79 80 80 79 79 80 80 80 77 77 72 73 73 74 74 74 71 71 70 72 72 69 64 70 73 74 74 68 70 74 80 77 79 76 78 77 74 76 80 77
69 71 71 76 76 74 73 70 70 73 74 74 73 67 66 67 65 67 68 68 68 62 59 61 61 66 61 61 57 54 58 60 63 64 67 64 62 62 64 68 71 70 71
62 63 61 65 64 65 66 62 63 67 69 71 72 68 64 63 63 61 61 48 63 56 51 53 47 54 59 54 54 56 56 57 52 52 57 54 56 62 60 56 56 55 58
56 51 53 55 55 56 55 54 54 58 61 63 64 65 65 63 63 62 60 59 58 51 48 45 44 47 50 48 49 38 39 37 37 38 41 42 48 48 45 50 53 53 49
40 38 38 34 30 32 33 32 33 38 49 56 59 61 60 60 59 63 64 60 54 47 47 44 47 44 38 33 29 22 25 27 26 25 29 27 21 22 26 31 34 30 28
32 23 19 20 17 15 13 4 19 28 33 40 52 53 64 54 54 53 57 57 51 48 46 47 36 33 23 22 23 25 24 24 23 15 18 17 17 20 21 21 20 17 18
25 28 32 27 23 26 29 14 14 26 26 24 35 45 53 48 57 54 50 47 43 37 26 29 27 17 17 19 23 24 25 17 14 15 14 13 19 22 23 21 24 19 19
40 34 38 34 37 34 34 31 34 21 29 26 32 31 40 46 48 48 46 39 35 25 31 28 27 21 14 14 14 14 14 14 16 18 18 23 21 28 29 31 33 28 31
43 40 36 38 38 37 42 37 45 16 53 44 31 27 34 42 54 44 41 35 36 25 31 32 29 25 18 22 20 23 21 21 23 28 31 31 30 31 34 38 33 28 28
36 40 37 40 50 44 38 50 36 27 38 43 29 27 30 37 43 45 37 35 39 36 34 33 31 29 26 24 24 25 26 27 25 30 32 32 34 35 42 40 40 32 29
35 42 36 33 42 43 37 44 49 50 53 40 26 24 24 35 40 44 36 40 38 38 39 34 34 30 33 32 30 27 25 27 28 31 34 32 33 38 42 42 41 35 39
31 32 40 33 38 35 39 48 44 46 41 33 22 20 22 25 34 37 40 44 41 40 40 36 29 28 29 27 32 28 28 26 30 34 33 31 35 41 45 44 40 43 42
31 31 32 36 39 39 36 42 51 48 40 28 27 25 25 23 32 37 45 47 41 39 37 35 29 39 26 28 34 34 34 34 34 33 37 39 41 51 44 42 43 47 49
32 33 33 45 46 49 43 41 43 46 35 31 28 29 31 20 26 41 44 45 42 39 34 32 28 24 27 34 32 34 30 37 38 37 42 44 46 53 52 46 48 49 50
37 31 34 45 51 52 43 39 49 41 39 38 41 42 37 29 25 27 38 48 40 37 32 38 38 33 32 30 30 37 38 40 31 37 45 43 50 54 55 48 50 53 51
32 35 34 45 50 53 46 41 44 48 42 36 42 45 38 36 37 35 43 50 41 37 33 40 43 38 38 40 35 39 44 45 46 45 45 51 56 62 54 54 58 57 53
28 39 35 40 43 40 45 34 43 47 48 40 40 43 40 37 39 38 43 44 45 38 37 40 38 40 42 44 41 46 51 53 48 46 55 60 62 61 57 59 57 55 52
21 26 44 41 40 39 33 38 40 41 46 44 40 37 40 42 42 42 44 44 43 36 37 42 49 43 47 51 50 51 55 48 51 57 62 67 65 62 60 60 57 52 53
18 20 32 42 44 50 46 36 37 40 48 45 43 45 38 38 45 41 45 45 43 42 46 53 55 51 49 48 55 52 51 53 59 63 66 64 63 62 62 59 53 52 57
14 17 20 40 43 50 49 43 41 46 43 45 48 46 42 42 43 47 50 48 49 52 54 56 53 56 53 53 55 56 59 63 64 66 66 65 65 63 62 56 53 55 57
14 15 18 20 36 48 49 54 40 44 50 46 44 41 47 47 47 47 49 55 57 57 59 59 57 58 57 55 57 61 65 64 66 66 63 62 62 65 59 55 56 59 57
16 12 17 18 22 35 44 53 55 48 42 50 48 48 48 46 48 51 52 53 54 59 60 64 62 58 60 62 62 65 66 66 67 67 63 63 66 61 60 63 59 60 60
18 13 11 17 20 20 29 44 60 57 55 42 51 52 52 54 50 54 54 53 54 53 55 59 63 63 64 67 66 65 68 69 70 70 70 68 64 63 62 59 60 60 59
14 17 17 13 18 23 21 31 43 57 58 55 57 58 56 55 54 51 48 48 54 57 63 65 63 65 65 67 69 70 70 70 71 72 69 64 64 62 62 59 60 60 61

GFSSE_250_spd_066.txt.gz
Wind_Speed
74 75 78 80 82 84 85 84 85 86 84 83 83 81 82 82 81 79 79 77 77 77 77 78 78 78 78 77 77 77 77 79 79 78 77 78 79 79 80 79 81 81 82
70 74 75 77 81 83 83 84 84 84 84 83 82 80 81 80 79 79 78 77 77 77 77 77 77 78 79 78 77 76 78 77 76 77 77 77 78 78 79 80 82 82 81
66 71 72 72 74 75 74 75 77 77 77 76 74 77 76 76 75 75 77 77 78 75 75 74 75 75 76 75 74 74 74 74 72 70 65 72 70 70 71 73 70 71 68
62 67 66 68 68 68 69 70 69 69 68 68 65 68 68 70 69 67 69 70 69 70 70 71 70 68 70 68 65 68 66 64 65 63 58 60 64 60 61 58 55 56 61
58 60 62 60 58 60 60 59 60 60 60 61 58 58 61 64 65 64 63 63 61 63 59 59 56 56 56 55 52 54 57 52 52 54 53 50 52 50 49 45 47 51 51
54 54 55 54 54 52 53 49 44 44 42 42 45 43 48 53 55 60 60 57 56 54 42 46 46 40 40 45 44 44 47 41 44 37 33 28 30 34 36 40 37 35 42
48 45 48 48 46 42 37 31 30 20 32 21 20 29 35 44 49 53 58 57 54 53 48 55 53 51 48 46 42 41 36 34 26 19 20 23 19 20 22 21 20 23 25
38 32 31 24 19 18 21 23 20 14 20 27 32 31 32 40 44 50 54 57 56 55 55 55 55 50 42 42 41 32 29 23 20 19 18 12 8 7 11 12 13 25 32
30 25 22 27 25 29 38 43 36 36 22 44 46 44 35 31 38 47 47 50 53 53 54 54 51 44 41 36 28 27 23 23 19 14 14 14 14 12 19 20 25 30 36
28 30 31 39 35 35 41 42 41 36 36 38 45 51 42 44 36 39 38 46 53 46 38 40 38 29 28 26 27 23 18 15 18 15 15 16 25 27 28 30 30 32 37
25 35 45 39 41 48 42 43 41 47 54 35 49 51 51 38 36 34 40 41 43 37 32 30 22 26 28 24 22 23 22 21 14 18 19 19 24 26 29 31 33 36 40
26 44 52 46 44 48 48 43 43 34 42 50 56 48 53 44 31 37 36 42 40 33 30 26 29 34 25 26 27 26 23 22 21 21 22 23 23 28 30 31 31 38 45
30 43 53 45 44 42 42 46 55 48 59 49 47 44 45 37 32 32 41 45 46 35 37 26 32 33 31 32 32 28 24 22 24 25 28 27 28 29 30 36 38 43 49
31 37 50 38 40 47 50 58 59 55 53 45 39 39 38 31 36 30 35 40 43 39 45 34 35 34 34 37 34 30 28 29 28 29 30 29 31 30 33 32 39 46 52
36 34 49 43 44 46 49 53 56 52 45 40 44 38 30 24 27 29 32 37 41 42 48 39 37 43 39 34 30 34 23 26 32 32 33 34 33 34 37 38 43 49 56
35 38 40 46 44 35 48 55 59 54 51 40 52 48 40 28 23 35 32 33 41 48 45 39 38 43 40 32 33 28 26 29 29 33 37 38 39 40 45 44 50 54 55
33 35 36 48 46 42 47 59 59 64 57 43 44 44 40 40 28 25 25 33 42 47 47 33 41 41 41 33 25 24 27 27 36 33 36 40 42 48 49 48 56 61 57
22 35 36 43 43 46 48 50 64 61 61 53 52 46 39 30 32 22 21 30 37 41 46 33 42 40 37 32 31 34 38 38 38 38 43 45 49 47 51 56 60 60 58
15 27 45 39 42 54 53 55 56 63 67 59 52 46 39 38 37 33 30 27 33 43 43 40 39 42 41 40 36 40 39 39 41 44 49 46 50 54 57 59 63 62 59
19 17 34 42 41 49 57 60 54 51 52 55 50 41 37 44 41 38 35 34 31 38 41 41 36 36 44 44 40 42 37 43 46 51 51 50 55 59 62 64 64 60 59
24 15 18 34 48 41 55 60 57 50 42 55 56 51 43 41 46 37 38 37 40 37 40 41 38 37 36 42 46 49 47 45 50 51 55 58 59 62 64 66 63 62 63
24 20 15 18 26 48 46 50 62 43 40 48 55 48 51 40 39 42 45 41 42 45 43 41 41 38 45 49 49 53 54 57 59 57 61 59 61 64 65 68 64 65 67
20 22 18 18 20 32 46 45 48 52 43 40 47 50 51 49 47 40 40 40 49 47 46 50 45 48 50 54 58 62 63 62 61 63 62 64 64 68 68 68 67 70 68
16 20 18 17 17 21 39 48 50 50 46 43 44 50 49 51 51 49 43 43 45 50 50 49 51 52 57 61 64 63 65 65 67 66 64 64 67 68 72 70 74 67 63
14 16 20 19 16 16 23 33 52 51 56 46 48 46 51 50 51 51 47 48 49 50 52 56 54 58 63 65 63 67 66 68 69 69 68 68 68 68 71 73 70 67 61
20 15 16 19 19 16 19 23 27 49 59 57 58 48 52 57 54 48 49 51 55 53 55 56 54 55 59 67 68 67 67 70 71 70 68 68 68 71 70 70 67 66 63

GFSSE_250_spd_069.txt.gz
Wind_Speed
70 71 73 75 76 77 78 80 80 79 79 80 81 81 81 80 80 80 79 79 79 79 80 79 78 79 80 79 78 79 77 77 77 79 77 77 77 77 76 77 77 77 77
66 67 69 72 75 78 80 80 80 80 80 80 81 81 81 81 81 81 81 79 78 79 78 78 77 77 76 76 76 77 78 79 77 79 77 76 76 75 75 76 75 76 76
59 62 63 65 66 67 69 71 73 74 73 72 72 72 73 73 73 73 74 74 75 75 76 75 75 75 75 74 75 76 76 75 75 74 75 73 72 72 70 72 69 64 65
54 59 59 64 63 63 63 64 65 66 67 65 62 60 60 59 59 58 60 63 64 68 68 67 68 70 70 71 72 71 72 69 69 69 68 68 67 66 62 57 53 49 49
44 54 55 57 57 59 60 59 60 60 59 57 54 52 54 56 56 54 53 53 56 56 57 57 59 61 60 59 57 55 57 57 57 56 55 51 49 46 42 36 35 34 34
44 47 53 47 50 53 50 48 48 45 42 42 40 39 43 46 48 48 48 48 52 53 51 51 52 52 54 52 48 35 34 38 42 44 40 34 23 24 27 25 24 22 15
45 41 46 43 44 44 37 35 27 25 22 19 18 19 26 27 28 34 39 45 48 52 47 48 43 45 39 34 38 38 39 44 38 35 26 18 21 14 15 11 8 13 15
43 39 40 40 39 36 31 23 14 23 19 11 13 15 16 26 25 25 25 37 44 48 45 47 41 35 45 44 43 42 46 39 32 26 20 16 13 11 4 3 7 14 17
39 38 37 35 27 21 25 31 32 34 31 28 17 19 36 43 42 40 30 26 39 40 42 47 48 42 52 54 51 44 42 27 30 23 20 19 17 12 13 16 22 23 26
37 36 34 24 24 25 38 44 48 45 40 36 23 42 38 53 45 47 42 39 34 38 40 42 47 48 46 49 48 44 29 32 27 24 23 23 19 16 16 18 20 22 23
36 34 30 28 35 29 52 52 53 52 43 45 38 45 41 45 47 43 42 46 34 35 42 32 42 39 36 32 31 30 32 20 25 24 24 22 17 22 24 22 25 26 30
33 32 27 33 40 40 52 53 56 52 54 49 49 50 56 42 41 48 44 38 42 37 37 35 34 29 26 25 24 28 24 27 28 27 24 18 21 19 24 28 28 27 25
33 30 27 42 39 41 50 57 57 50 58 56 45 40 56 40 34 45 42 37 34 31 39 32 27 28 28 20 25 30 30 28 25 26 27 26 23 25 24 23 25 29 32
32 25 19 47 40 40 52 54 53 56 62 54 53 50 55 47 40 39 39 40 39 28 33 32 27 28 25 30 29 37 32 30 28 31 27 25 26 24 26 32 30 35 35
29 25 25 30 42 49 45 49 46 52 53 56 47 48 49 46 44 31 28 29 34 33 31 32 32 31 31 36 33 39 38 32 31 34 36 34 30 29 32 35 34 39 40
29 24 25 29 46 52 51 48 42 46 48 52 43 53 51 45 39 31 22 23 24 23 28 35 39 37 37 35 37 38 36 37 32 30 29 27 29 32 37 36 34 40 43
27 20 26 32 30 55 47 53 51 51 50 49 43 43 45 48 42 43 38 34 32 27 32 38 46 46 41 40 39 37 38 32 27 26 29 31 35 39 36 41 38 42 49
25 21 24 33 33 43 49 54 53 58 54 54 47 47 50 50 50 42 31 37 34 36 38 44 50 47 41 40 42 39 45 29 28 30 32 35 39 38 42 43 45 48 54
21 20 18 32 35 43 50 57 59 55 61 59 58 56 51 43 44 45 35 31 24 26 36 41 48 49 44 39 44 43 41 36 30 30 33 35 43 44 45 48 51 56 57
18 19 17 23 40 41 52 58 55 60 63 60 60 66 65 51 46 45 38 32 28 25 32 42 46 52 45 38 42 41 37 38 34 37 35 37 42 44 51 52 56 59 58
18 18 20 15 27 42 45 52 54 56 66 64 60 65 62 58 53 44 41 36 34 33 31 44 45 47 42 41 43 39 43 45 45 47 50 49 48 52 57 60 60 61 63
18 15 18 15 18 38 46 44 55 55 65 67 71 66 65 65 53 47 52 51 43 42 41 43 42 45 42 40 41 38 48 50 52 57 49 52 54 58 60 60 63 64 65
14 15 14 18 17 21 42 49 46 60 64 64 56 63 61 63 57 53 49 44 40 39 42 43 42 40 40 43 49 47 44 59 65 59 54 57 59 61 61 67 65 65 66
11 14 15 15 17 14 19 33 52 47 64 66 60 57 54 57 67 64 57 51 41 39 41 40 44 47 49 45 48 53 54 57 60 60 58 60 63 63 64 68 71 67 66
14 15 16 16 16 16 15 18 33 53 49 56 63 60 49 49 44 55 55 52 47 45 42 47 48 50 53 55 54 57 58 61 58 60 63 66 68 68 72 70 68 67 69
17 15 16 18 16 18 17 13 21 38 52 50 54 55 50 44 48 49 54 55 54 56 52 50 49 53 56 58 60 60 58 61 61 66 70 69 73 76 73 72 69 68 69

GFSSE_250_spd_075.txt.gz
Wind_Speed
70 73 73 73 73 74 76 79 80 80 80 78 77 77 77 78 81 83 84 84 83 82 82 81 81 81 81 82 81 80 80 81 80 80 81 79 80 79 80 79 78 79 78
64 67 66 67 67 68 69 72 74 77 79 79 78 79 79 80 82 84 85 86 84 84 83 82 82 82 81 80 80 80 80 81 81 81 80 80 82 79 79 79 77 76 73
60 60 59 59 60 63 64 67 70 72 72 72 74 76 77 78 80 82 85 86 85 84 83 82 81 79 78 78 77 78 78 78 79 77 78 77 77 76 74 71 72 72 71
55 55 56 55 56 59 61 63 65 67 67 68 67 67 71 73 77 77 78 80 80 80 77 77 76 75 77 77 77 75 73 72 71 71 69 69 66 66 60 54 63 56 55
55 54 52 53 53 56 56 57 60 61 63 63 61 58 57 58 61 63 66 66 67 67 68 67 66 65 63 64 65 65 62 61 60 59 58 55 48 45 47 44 41 38 35
57 54 53 51 50 50 50 49 52 52 53 52 53 50 48 51 54 54 56 59 57 54 55 53 52 52 52 50 49 47 45 47 45 43 40 36 38 34 31 33 33 31 28
58 51 53 51 48 45 43 40 41 41 40 35 27 23 25 34 45 47 50 53 52 49 46 44 45 42 42 40 40 37 42 40 36 37 32 30 28 27 32 31 28 20 20
54 54 50 47 46 41 37 32 27 29 18 10 6 14 17 17 24 32 38 36 37 35 24 26 29 32 34 33 32 35 35 28 33 30 31 29 25 28 31 22 19 21 16
51 48 47 47 39 33 35 29 23 25 24 15 17 33 32 25 15 7 12 20 20 17 11 13 9 24 26 28 31 35 36 29 32 33 36 33 28 31 24 19 21 18 18
43 44 46 44 36 33 34 30 30 37 30 28 25 47 40 36 35 20 19 18 15 17 15 18 17 17 18 24 30 34 33 24 39 38 41 38 36 36 25 26 21 22 19
42 43 41 39 37 34 33 31 30 44 41 39 33 51 52 43 31 36 30 29 23 22 13 18 20 23 19 20 26 32 37 38 49 45 48 47 44 35 30 27 26 21 18
36 40 39 36 39 37 35 33 33 42 52 53 42 51 50 54 42 44 38 32 29 26 27 24 23 21 20 21 22 31 37 44 46 47 51 51 44 31 36 31 27 22 19
37 38 34 36 38 36 33 31 32 43 61 58 50 54 55 55 50 48 41 31 27 29 29 31 32 28 23 20 23 31 30 30 36 40 41 37 38 34 33 25 22 21 23
37 36 32 34 36 33 31 29 32 42 64 61 60 54 61 51 56 44 37 43 45 33 27 31 34 31 28 30 29 26 34 30 28 26 29 25 26 34 27 26 28 27 30
35 31 32 34 35 29 27 28 36 46 53 65 52 61 55 50 54 45 48 39 41 32 23 19 26 27 29 26 26 30 36 33 30 28 27 25 27 30 30 30 32 29 25
31 29 33 36 32 27 24 28 40 46 48 59 63 62 54 47 52 50 45 40 34 32 27 17 11 14 20 28 20 27 37 36 36 29 36 30 29 30 30 30 27 25 27
28 29 28 34 30 28 24 26 46 47 45 51 60 66 58 53 55 49 46 41 36 35 33 21 26 30 27 21 24 32 42 45 39 32 36 32 30 30 30 33 30 29 31
27 24 28 29 28 27 24 26 34 43 45 46 32 56 62 59 55 53 54 48 42 41 36 36 29 31 26 27 33 37 41 44 43 34 40 37 34 32 32 34 32 34 34
25 20 23 25 26 25 22 29 31 39 45 37 32 33 52 52 42 45 53 53 48 44 43 41 40 34 28 27 30 36 42 45 45 42 38 46 42 38 38 37 37 38 38
24 19 22 20 21 23 20 25 30 36 38 41 31 33 43 50 45 49 54 61 51 47 42 39 40 31 28 28 31 32 48 49 46 45 42 46 48 47 44 42 42 44 43
23 20 20 19 15 16 12 20 30 31 33 40 39 34 40 53 55 51 48 48 49 48 46 44 38 28 31 33 36 32 43 49 48 45 47 48 48 41 44 47 50 46 45
24 18 17 16 14 14 12 11 15 34 35 36 42 36 38 46 59 52 50 50 52 50 43 41 36 39 35 40 36 32 31 47 53 50 48 51 56 53 52 54 55 55 55
25 18 14 12 12 13 12 12 14 15 39 35 38 34 41 40 50 54 57 56 56 53 51 51 52 45 50 41 34 33 36 37 53 53 56 53 58 60 61 64 61 61 59
24 16 13 10 12 11 11 10 13 13 17 41 39 40 40 42 49 50 57 62 62 58 56 55 56 56 42 45 39 34 35 38 41 51 60 60 55 56 58 63 63 62 62
20 17 16 14 12 10 10 9 9 12 10 20 40 43 46 46 48 53 55 53 53 56 59 61 58 55 58 51 48 36 37 42 46 49 53 60 62 61 61 61 61 65 65
21 18 17 17 14 11 11 10 9 9 10 11 22 37 47 51 47 49 51 47 49 50 51 50 49 51 51 49 46 45 47 49 50 51 51 53 55 62 62 64 67 71 70

GFSSE_250_spd_078.txt.gz
Wind_Speed
61 60 59 60 60 60 60 61 65 66 69 72 76 77 77 78 81 83 82 81 82 81 80 80 80 79 79 79 79 79 80 80 80 81 81 82 81 81 81 81 81 81 80
58 58 57 56 57 56 54 54 59 61 63 65 69 74 75 78 78 82 83 83 84 84 84 83 83 84 83 82 82 82 81 82 82 81 81 82 80 81 80 82 81 81 80
59 56 54 51 50 49 48 50 52 56 58 60 63 64 67 70 73 76 78 81 82 82 83 84 84 84 84 83 83 83 82 82 81 80 80 80 78 79 79 78 77 76 75
58 56 53 50 45 45 45 46 49 50 52 55 59 57 57 61 65 65 66 68 71 75 77 78 82 83 83 84 84 83 81 80 80 80 80 80 78 76 74 74 73 68 63
56 55 55 54 50 48 44 45 46 47 49 51 50 50 52 54 56 57 59 62 66 70 69 70 72 70 70 73 74 74 75 76 72 72 73 69 69 65 62 63 56 49 44
51 55 58 55 49 47 45 45 44 44 44 46 45 43 41 43 48 51 54 57 59 57 58 56 56 58 58 60 57 56 56 54 55 55 53 49 47 46 42 42 33 34 31
50 54 56 53 50 51 44 46 43 37 36 37 31 27 22 17 24 32 39 44 51 52 53 55 54 51 49 48 46 43 42 41 41 37 34 34 37 33 30 24 28 27 24
51 51 55 55 51 50 43 42 36 30 27 24 21 16 6 6 6 15 22 30 39 40 43 43 46 45 42 40 40 40 36 33 32 32 31 31 28 25 23 21 26 24 18
56 51 52 52 50 50 41 38 31 23 20 24 29 23 16 20 9 17 21 24 26 30 35 32 30 26 24 26 30 31 32 32 33 32 29 29 25 27 27 23 27 21 23
61 53 49 50 49 45 44 37 28 24 26 42 37 33 28 28 26 31 20 22 18 19 25 20 17 6 5 16 21 26 29 30 32 31 31 30 29 33 34 27 19 22 20
60 52 48 47 46 51 45 33 28 29 29 48 41 37 39 41 34 35 26 19 21 13 18 12 16 13 12 10 13 20 22 26 30 32 26 34 34 37 37 38 25 31 26
56 45 45 43 47 50 43 35 28 30 35 57 48 43 42 45 37 40 37 28 22 21 16 19 16 12 11 9 11 14 15 22 32 37 35 38 42 44 42 44 34 33 28
47 43 39 42 41 43 41 32 30 31 39 50 53 54 48 44 42 42 38 41 39 31 31 25 27 18 19 17 20 20 19 22 26 32 36 42 47 45 45 46 31 33 26
41 41 35 38 42 39 34 32 27 31 35 47 48 58 52 45 51 50 47 42 43 37 35 32 21 22 23 27 24 28 22 18 21 27 29 31 30 29 33 35 34 29 26
39 35 34 37 35 34 31 32 29 30 31 40 49 59 59 49 47 52 49 47 43 43 42 38 30 17 13 18 21 15 15 23 31 26 30 31 28 27 27 25 34 25 29
35 30 29 33 32 32 31 29 29 28 28 39 48 55 60 55 48 53 50 47 45 41 37 39 28 19 11 11 21 23 21 30 36 31 36 34 32 26 24 27 27 27 31
31 26 30 29 29 31 30 28 26 28 29 39 44 48 59 57 63 45 49 54 51 47 39 39 29 28 24 26 23 19 29 30 27 31 37 40 31 29 29 33 33 33 31
28 28 27 26 25 27 30 26 24 27 29 36 44 44 54 57 51 57 40 45 45 42 37 27 29 27 23 23 27 29 29 26 32 33 34 41 34 35 32 35 38 36 37
26 27 25 25 22 26 29 25 23 24 24 36 44 35 41 47 53 50 49 44 47 39 36 38 36 36 33 37 35 28 27 25 28 34 38 35 41 43 38 37 38 38 38
27 26 26 23 20 22 26 22 21 23 21 25 37 34 41 34 29 34 51 42 46 43 43 42 41 42 40 37 36 17 20 26 27 34 39 43 43 43 44 43 44 40 39
28 27 26 22 21 20 19 16 14 18 26 22 26 29 39 29 29 37 42 48 48 47 52 48 47 42 39 38 28 23 25 30 28 27 35 46 46 51 48 53 51 52 50
31 27 26 20 19 19 18 14 14 12 22 28 24 34 35 32 31 34 34 39 39 38 47 50 49 43 42 38 31 31 34 32 31 30 34 36 46 47 51 53 53 60 57
30 29 25 19 15 14 15 15 14 11 13 28 27 32 37 29 30 31 33 35 41 43 49 49 51 49 46 41 41 42 45 35 35 35 36 30 37 47 54 53 54 56 59
31 28 25 21 14 11 11 12 13 12 11 17 34 29 34 37 43 38 40 40 43 49 50 48 48 49 50 51 50 49 46 43 37 40 33 33 34 43 53 54 59 59 59
30 28 25 23 15 12 9 9 11 7 8 11 33 34 37 39 47 45 48 52 53 51 50 51 53 53 52 50 50 53 53 48 41 41 36 37 38 42 43 48 55 60 64
31 28 27 24 19 13 11 9 8 4 5 4 21 40 42 40 46 51 54 59 57 56 57 57 59 60 56 55 55 57 56 54 50 45 43 41 44 48 48 47 51 56 59

GFSSE_250_spd_084.txt.gz
Wind_Speed
53 55 55 56 56 57 57 56 53 55 60 61 65 69 70 72 75 76 79 80 80 80 78 76 75 76 75 74 74 74 73 73 74 74 74 74 74 75 76 76 77 78 78
55 54 55 55 55 57 57 53 50 49 52 55 56 60 63 66 70 72 74 77 76 79 80 80 79 78 78 79 79 79 78 78 77 78 77 77 77 79 79 80 80 81 80
55 55 55 56 58 55 56 55 53 46 44 47 51 54 58 62 63 64 69 71 72 73 74 78 79 80 79 79 80 81 81 82 81 81 80 81 81 82 82 82 81 82 81
58 56 55 56 56 58 54 56 58 54 46 45 44 49 52 55 57 60 61 63 62 63 66 66 73 78 78 79 78 78 80 80 79 80 79 83 83 82 81 82 81 78 79
62 56 56 58 58 57 59 57 54 53 47 45 42 44 48 49 52 52 51 54 57 56 57 58 62 66 71 74 74 75 74 73 73 74 74 74 76 75 74 74 73 70 70
65 60 59 61 61 60 59 59 58 53 47 44 42 40 41 40 38 40 36 38 41 38 39 47 54 56 60 64 65 66 66 64 62 62 61 61 63 61 62 60 58 56 50
69 67 64 66 64 62 61 61 57 51 50 45 42 34 36 26 28 26 22 20 19 19 31 37 44 49 52 54 56 57 57 54 56 56 54 53 51 49 48 46 44 40 36
71 72 70 69 67 68 64 64 58 52 49 42 35 28 24 20 18 16 11 13 11 18 19 22 32 44 47 50 52 51 49 50 49 47 45 45 43 42 41 39 33 30 29
69 67 67 66 66 63 63 65 60 55 49 41 34 24 22 27 27 22 27 30 21 23 24 25 29 30 40 43 45 45 45 44 45 42 40 40 37 38 37 32 27 22 25
71 68 64 64 65 67 66 66 62 54 45 39 33 28 36 44 36 34 37 32 33 30 29 28 25 25 32 33 38 37 36 36 38 36 34 32 32 30 27 25 22 20 24
71 69 68 70 71 69 67 61 62 52 43 37 35 35 49 49 49 40 39 39 39 31 25 27 26 24 24 27 30 28 29 30 29 27 25 25 26 26 27 25 26 29 27
71 68 62 66 71 68 56 57 57 49 39 38 39 36 51 54 56 47 43 46 39 30 35 29 25 20 25 21 19 16 19 20 18 13 11 10 12 16 21 23 23 31 33
70 76 74 70 71 65 57 55 50 42 38 39 39 34 50 59 59 52 53 44 40 37 37 24 23 21 22 19 16 12 10 14 10 7 5 8 12 16 20 25 32 33 34
76 81 76 66 68 64 56 50 44 36 36 38 37 35 46 59 63 54 59 47 41 30 27 32 26 29 25 22 22 16 10 11 14 12 11 11 14 18 24 26 27 27 30
80 81 71 64 62 56 47 43 35 35 34 34 35 38 45 50 57 61 61 45 45 35 31 34 32 31 28 24 22 18 16 16 10 12 8 8 14 18 23 27 27 30 30
78 78 67 55 54 39 37 33 33 34 33 34 31 36 40 46 50 67 66 47 46 45 44 37 37 34 30 24 25 22 19 17 19 23 12 12 15 16 19 27 31 30 30
81 70 61 49 43 31 30 29 33 32 31 31 31 34 39 42 49 58 71 58 47 49 47 50 40 38 33 30 24 24 23 23 24 22 19 9 14 17 19 23 29 24 26
67 61 46 43 34 30 25 31 33 30 26 28 31 33 35 40 48 54 69 68 56 53 57 55 50 46 41 38 37 25 22 28 27 30 18 13 18 17 18 24 24 25 25
59 53 41 37 32 27 30 34 32 25 25 28 29 30 33 37 43 55 57 69 58 58 60 58 56 53 47 42 44 33 32 33 35 34 30 31 24 18 19 19 21 21 24
53 44 41 33 32 30 35 31 27 23 25 21 26 30 32 34 40 48 53 60 59 56 57 61 60 56 48 39 39 35 40 41 35 31 30 24 19 21 21 19 21 18 23
45 39 37 36 34 35 36 29 23 23 21 13 18 29 34 34 42 47 51 43 45 49 61 58 57 51 45 41 38 38 40 38 40 35 27 26 28 29 23 25 30 25 21
41 37 37 39 38 37 33 24 23 22 21 16 13 23 35 40 42 43 42 41 44 44 45 47 52 44 45 45 41 43 43 44 42 33 31 34 32 34 30 30 30 24 28
38 35 43 40 39 36 30 23 24 19 21 19 15 21 27 35 40 39 41 35 37 46 44 46 42 47 50 43 44 46 48 45 40 37 33 38 41 37 33 35 33 37 33
37 44 45 42 39 34 25 24 17 12 15 22 19 17 25 36 41 42 42 36 39 37 45 50 49 46 45 43 48 38 34 38 41 42 42 42 40 42 39 39 41 40 38
42 48 46 42 37 33 25 23 13 8 12 19 21 19 28 35 34 34 36 36 34 40 47 46 46 44 42 38 34 38 42 44 37 37 39 41 46 48 46 46 45 46 45
50 49 47 43 38 32 26 23 13 8 13 16 17 22 31 37 40 38 40 36 36 40 43 40 40 42 31 32 32 38 41 39 44 44 44 49 51 52 51 50 50 54 51

GFSSE_250_spd_087.txt.gz
Wind_Speed
54 56 57 57 57 56 54 56 56 54 55 52 55 59 64 68 70 72 73 75 77 78 80 81 81 81 78 77 76 75 75 73 73 73 73 71 71 72 72 71 71 73 74
51 52 52 54 51 51 53 53 54 54 53 51 51 51 55 61 63 65 66 70 72 75 77 78 80 79 80 80 79 78 77 77 78 77 76 76 76 75 74 74 73 74 76
50 53 53 52 53 54 55 55 52 51 53 53 53 52 49 51 55 58 59 60 62 67 70 73 75 76 78 79 78 79 79 78 77 77 76 76 75 75 75 75 75 73 75
53 57 55 54 55 56 56 56 55 54 54 59 55 51 49 50 49 50 52 55 55 58 59 64 65 69 74 75 74 73 74 75 75 75 73 73 74 71 71 71 73 72 71
58 60 57 57 57 56 57 59 59 60 62 56 57 54 46 46 44 42 42 46 46 49 52 54 56 58 64 66 69 70 69 69 69 68 62 61 66 62 61 57 59 63 63
62 61 58 60 59 59 60 63 65 65 63 62 57 51 45 42 34 35 35 34 33 32 36 40 45 41 45 52 56 57 60 63 63 59 57 54 51 51 52 53 52 52 50
66 65 59 55 57 61 63 64 65 64 61 61 56 47 42 39 33 28 26 15 7 6 7 15 22 31 34 42 46 51 54 54 53 46 44 38 36 38 41 40 43 45 42
68 71 65 60 62 64 63 62 63 60 60 59 56 49 43 36 32 28 20 19 18 16 16 17 17 28 26 30 39 45 49 48 48 46 43 35 34 38 40 41 40 39 35
71 69 63 66 69 67 65 65 62 61 61 64 58 55 43 35 32 25 31 25 28 30 29 26 22 28 33 33 35 43 45 43 42 41 39 38 39 40 39 37 34 32 30
65 68 70 70 70 71 68 65 64 64 65 63 61 56 42 37 39 40 38 33 36 35 39 29 28 17 34 34 31 31 38 39 36 36 37 37 39 36 34 31 28 25 22
68 71 73 73 73 75 70 66 62 61 63 62 61 57 45 40 42 49 46 36 41 35 37 35 36 24 32 24 22 22 34 32 30 33 32 31 30 28 27 24 24 22 21
71 73 73 73 73 71 65 66 68 70 64 62 59 55 41 43 49 53 52 47 44 39 40 41 39 37 22 26 23 24 25 22 23 27 22 21 15 13 17 20 20 20 24
72 74 75 73 65 66 69 74 75 66 59 57 54 46 37 49 54 55 55 53 47 44 45 45 39 33 32 24 20 17 16 15 20 22 15 11 10 6 10 16 21 21 28
71 72 72 70 67 68 75 76 72 61 57 49 47 42 36 52 55 58 56 55 49 46 45 46 40 40 32 19 16 19 13 13 12 10 10 6 4 5 11 15 19 26 29
68 69 69 68 70 74 79 75 64 51 49 42 39 40 42 51 53 59 56 54 53 48 45 43 44 40 33 27 24 22 18 12 12 13 16 14 7 5 9 13 20 22 25
68 68 68 72 73 76 70 66 49 46 38 38 36 42 42 48 47 56 56 50 57 47 51 43 34 34 35 29 31 27 23 17 16 19 18 15 13 9 12 15 16 21 26
66 65 66 70 70 70 57 52 44 38 34 32 36 37 41 44 42 50 60 49 51 50 57 44 38 36 40 35 33 29 25 21 16 21 21 24 15 14 14 14 16 18 22
61 67 69 74 69 65 56 43 37 33 34 28 30 35 38 41 42 44 50 58 59 53 59 47 45 40 39 38 33 29 24 22 22 25 26 27 23 22 14 17 18 16 21
66 70 73 70 67 59 49 37 33 32 24 28 33 35 36 39 42 45 47 55 57 56 56 52 48 47 42 43 39 34 30 25 23 27 29 28 30 30 25 18 19 19 21
69 74 71 68 63 54 42 33 32 25 24 29 30 31 35 36 39 42 47 51 54 54 61 52 51 52 51 51 43 40 36 30 27 35 33 37 36 32 24 25 20 24 24
72 74 71 67 52 45 34 33 30 25 27 28 28 30 34 37 40 41 45 52 55 54 55 62 58 55 55 54 53 50 47 38 39 41 41 43 37 34 29 29 27 25 24
73 71 62 57 43 35 34 33 29 27 31 29 25 26 30 36 40 40 41 50 58 56 56 57 58 61 61 59 58 58 58 49 43 43 48 40 36 30 35 37 31 27 28
72 65 59 50 32 33 37 33 30 30 30 25 26 26 23 30 38 39 42 43 54 58 54 61 62 57 56 59 57 57 52 47 40 45 48 43 42 39 36 38 37 33 30
69 66 50 42 31 37 38 35 31 31 24 26 29 28 25 25 30 38 44 43 44 45 46 48 49 61 61 52 57 52 52 46 46 48 50 44 41 41 40 42 40 39 40
70 61 43 35 39 42 39 35 32 25 22 24 24 29 25 22 28 41 44 48 44 43 45 44 46 49 46 41 48 52 55 49 51 51 43 37 39 34 37 41 39 43 44
62 56 41 38 46 43 41 35 32 23 23 25 19 21 25 22 28 36 43 42 42 44 42 43 47 51 53 49 50 54 50 53 52 51 40 42 42 39 40 44 47 49 50

GFSSE_250_spd_093.txt.gz
Wind_Speed
57 58 57 59 59 59 58 57 55 55 54 52 53 54 59 60 61 59 62 64 63 63 65 68 70 68 66 65 64 65 64 57 52 53 53 53 58 60 62 64 65 63 65
48 52 53 55 56 55 54 52 50 49 47 45 44 46 51 54 53 57 60 60 56 54 55 59 61 54 51 50 55 56 57 56 55 49 47 49 48 57 59 63 62 64 66
45 45 47 51 54 53 51 48 46 44 42 40 44 48 49 51 51 51 54 53 46 48 49 45 44 44 47 46 45 49 50 50 48 55 57 58 66 70 72 74 77 75 72
44 45 46 50 54 52 49 47 46 44 44 48 49 49 48 50 50 52 52 49 43 40 35 37 35 37 37 40 41 43 45 47 48 50 52 56 59 61 63 64 64 64 62
43 44 46 47 52 51 48 47 48 47 49 51 53 53 52 52 53 54 52 44 43 37 32 27 27 19 25 31 33 35 38 43 46 46 45 49 53 54 55 55 53 53 52
44 46 48 50 53 52 47 49 50 50 48 53 56 58 56 55 56 58 55 47 37 33 28 27 28 26 25 22 21 26 32 35 35 38 39 41 44 39 39 42 42 42 43
51 51 52 53 57 54 48 49 52 52 52 54 56 59 60 60 62 63 60 51 37 33 33 35 35 27 18 11 10 16 21 25 28 33 33 38 39 35 34 36 38 36 36
57 55 56 57 60 54 50 51 53 53 57 59 59 59 58 60 65 65 64 50 39 36 40 41 40 31 26 17 18 19 22 24 23 22 28 31 31 26 29 32 29 29 30
59 59 59 58 62 58 53 55 56 58 60 62 60 61 61 63 65 68 63 50 42 40 41 42 44 41 36 28 24 18 22 22 21 19 26 26 21 20 21 28 30 29 26
63 62 61 61 64 59 54 55 56 60 63 64 62 64 65 68 68 66 55 48 50 41 42 41 45 46 42 29 28 24 19 18 18 22 26 24 24 24 26 29 27 25 26
68 61 60 59 59 55 54 57 58 63 65 66 66 68 66 67 66 64 60 58 55 45 43 44 46 47 44 35 29 29 24 23 15 19 19 24 23 25 26 27 28 26 24
55 58 58 54 55 54 55 58 62 64 67 67 67 65 64 68 70 67 69 65 60 53 45 46 45 44 46 39 31 33 30 24 22 20 22 26 23 25 24 27 24 18 19
55 61 63 58 59 63 63 63 64 67 65 65 62 62 65 67 68 74 66 57 55 51 46 46 48 48 41 41 37 32 31 32 32 24 29 27 23 17 17 15 15 14 15
53 61 62 59 64 63 60 63 66 65 62 58 65 66 62 70 71 63 53 46 47 46 45 46 53 49 42 45 40 33 31 28 28 25 29 25 16 15 13 14 13 11 13
54 50 57 58 61 62 61 66 65 62 56 61 60 63 66 71 62 54 35 31 38 43 44 44 53 48 42 41 42 35 34 32 26 28 23 17 16 16 14 11 7 8 10
54 48 51 58 60 55 51 54 50 55 56 58 64 68 70 74 56 45 31 32 34 39 38 42 45 45 45 40 39 36 35 31 30 28 21 15 18 13 12 10 8 4 5
52 43 32 47 44 43 45 49 49 54 59 59 62 68 76 61 49 39 30 33 27 30 37 40 39 41 46 46 40 40 37 33 33 30 24 21 20 19 15 13 11 8 9
51 40 34 42 51 46 48 49 52 57 57 63 66 73 66 52 39 33 38 40 35 35 36 38 38 44 46 50 48 41 41 35 33 30 28 27 23 24 19 16 15 13 13
52 46 38 42 47 53 44 52 53 58 63 67 70 72 63 42 35 31 38 43 38 37 39 39 38 43 49 47 49 42 40 38 37 33 33 29 25 24 24 20 21 22 19
54 50 43 44 49 55 42 50 59 65 61 61 68 70 52 37 32 31 37 43 40 38 38 38 38 42 48 47 47 45 39 36 37 39 36 29 26 28 26 26 24 26 28
48 46 39 48 58 58 51 58 60 53 59 63 67 62 42 30 27 32 41 46 41 43 39 40 41 46 51 49 44 42 40 36 42 37 38 31 29 32 30 30 26 29 29
49 49 41 46 55 61 53 57 53 56 62 64 60 52 35 28 28 31 34 42 41 40 42 40 44 46 52 52 48 46 36 40 44 42 40 35 30 30 29 29 30 32 33
49 43 33 45 54 55 53 57 57 60 61 57 57 42 32 32 30 29 29 33 37 39 43 42 45 50 52 55 53 50 43 41 46 45 43 41 39 39 39 36 36 37 39
51 46 42 46 55 60 62 59 57 59 58 61 53 37 35 32 29 28 30 33 35 40 46 48 50 51 52 58 53 53 48 47 48 50 47 48 49 47 47 45 42 42 43
58 58 49 47 48 55 57 61 57 58 62 60 51 38 37 32 33 30 31 34 34 42 46 47 51 52 50 62 62 55 53 51 50 50 50 51 53 52 52 51 49 45 46
54 41 48 56 60 60 61 58 60 61 62 63 45 42 38 34 32 32 34 34 35 36 42 47 48 51 55 59 63 64 59 54 51 53 55 51 55 56 54 54 50 43 40

GFSSE_250_spd_096.txt.gz
Wind_Speed
70 67 67 68 66 65 63 62 61 58 58 61 60 59 59 61 62 63 63 59 59 64 62 62 64 66 65 65 61 61 59 58 55 51 49 54 56 60 59 61 61 62 61
61 60 62 63 62 59 56 55 53 52 54 55 54 53 51 53 57 58 57 56 54 55 54 55 50 49 46 47 45 46 46 46 49 49 50 49 50 52 56 59 61 62 64
57 54 55 53 55 55 53 50 48 49 50 50 48 47 48 47 50 52 51 51 49 48 46 46 47 41 41 39 35 36 39 43 45 45 46 49 51 57 59 59 57 60 61
48 48 47 49 51 53 49 46 46 47 47 46 45 46 44 45 47 50 49 47 47 45 38 37 37 37 36 32 30 35 34 41 45 44 44 43 45 49 56 56 57 60 63
45 41 44 47 49 51 48 43 44 44 45 45 44 44 45 45 47 49 49 50 50 49 40 36 37 37 35 37 35 36 38 40 42 45 44 41 42 45 47 52 57 56 57
42 42 45 48 50 53 51 44 45 46 46 44 46 47 49 49 48 48 51 50 48 51 46 40 40 43 37 35 32 36 35 31 36 37 39 37 38 42 44 45 45 46 47
44 46 47 50 53 54 55 48 46 47 46 46 47 48 50 49 50 52 51 53 53 54 52 46 42 47 40 35 30 29 20 22 21 24 28 31 33 29 29 30 33 34 36
48 51 50 52 54 56 59 52 49 47 45 45 50 51 50 53 53 53 52 54 55 56 53 51 42 45 44 40 35 34 26 19 23 16 21 24 23 19 20 27 30 34 36
48 53 53 53 55 58 59 57 46 45 48 47 49 50 51 54 56 54 56 57 57 57 56 50 46 42 44 45 41 42 39 24 20 13 18 21 17 18 18 21 27 30 30
51 55 55 55 57 59 60 56 43 44 42 47 50 50 53 56 56 59 60 59 59 59 58 52 51 44 42 44 42 39 37 33 18 13 10 13 12 14 18 25 28 29 30
46 57 59 57 57 60 60 59 52 42 43 48 50 53 58 58 60 61 59 56 58 57 55 53 51 45 44 41 40 41 36 37 21 11 9 14 15 16 24 30 30 31 30
46 47 54 55 56 56 54 55 49 49 51 51 54 57 58 60 59 59 55 58 56 56 63 61 58 51 46 43 42 43 35 35 28 22 16 19 20 23 26 29 27 30 30
59 51 52 53 54 54 54 55 55 53 53 53 53 56 60 61 57 53 53 56 62 66 65 57 54 51 49 44 43 44 40 32 24 27 27 21 25 32 31 28 26 23 22
59 58 58 57 58 57 57 57 58 53 51 49 52 58 62 56 49 51 59 63 66 61 50 42 41 44 45 41 43 44 37 34 32 21 21 19 26 27 24 20 18 19 20
55 63 65 63 59 56 55 59 59 55 51 50 55 54 53 52 53 54 62 63 68 53 39 38 37 39 38 38 40 42 40 34 30 29 21 22 24 23 21 19 18 19 17
60 58 67 66 63 55 53 53 52 49 49 47 46 48 49 54 54 63 65 67 61 41 34 36 33 36 33 34 41 38 36 35 34 27 27 25 21 18 18 16 15 14 10
64 63 65 64 61 52 46 46 44 44 40 41 45 47 50 51 61 63 67 70 48 32 34 34 30 33 32 38 42 41 37 37 39 32 27 22 21 22 20 15 12 13 10
74 61 68 65 62 57 38 42 41 38 39 45 44 47 49 58 61 64 70 56 35 33 37 36 33 31 39 40 46 45 39 38 39 35 27 25 23 26 24 24 18 15 13
70 64 66 62 57 52 43 40 42 41 43 46 43 46 52 51 60 66 62 42 31 39 39 37 33 35 45 45 47 47 42 40 40 37 32 27 25 31 29 29 23 16 17
82 74 67 60 57 53 46 42 41 42 42 42 45 51 47 55 60 59 53 33 32 41 39 37 37 36 42 50 49 48 45 44 40 36 35 31 31 36 33 29 28 24 20
81 77 70 62 57 57 51 47 46 42 46 43 49 53 51 53 53 64 41 30 35 41 41 39 38 38 41 50 54 52 51 45 42 37 36 36 36 37 35 32 30 31 25
66 66 67 59 53 58 54 52 46 47 43 46 52 50 51 55 55 51 31 28 33 44 46 43 41 40 44 52 54 53 50 45 44 41 36 39 39 39 37 34 36 35 31
58 59 63 60 52 47 50 49 42 45 49 46 49 53 51 52 52 39 27 27 35 44 45 44 44 42 46 49 53 58 52 44 45 44 41 39 40 42 40 36 38 36 35
51 51 58 60 57 48 43 45 43 45 45 50 56 49 52 51 55 33 30 30 32 40 45 40 49 40 47 47 53 58 55 49 49 47 47 44 42 42 39 39 40 39 37
44 56 51 44 46 54 45 49 47 46 46 46 48 50 53 52 52 32 37 35 35 37 37 42 42 41 47 49 51 54 53 48 50 46 50 48 47 42 41 43 45 47 42
48 58 59 53 50 54 53 53 50 48 43 52 53 48 49 55 44 36 40 38 34 31 33 36 40 44 47 50 52 57 59 54 54 51 50 50 51 52 50 48 50 53 51

GFSSE_250_spd_099.txt.gz
Wind_Speed
75 78 77 76 76 75 74 71 69 66 65 65 64 65 63 61 59 58 59 61 63 64 64 63 59 59 60 60 58 56 56 53 54 54 48 51 54 55 58 57 59 61 60
79 79 80 78 77 75 74 71 68 65 63 62 61 61 60 60 59 56 54 56 57 58 57 55 55 52 49 48 46 49 47 47 49 49 50 51 54 56 55 57 55 55 53
68 70 73 75 72 70 68 66 61 59 58 56 56 55 54 55 55 54 50 51 52 51 48 45 41 43 41 39 40 39 40 49 47 51 47 49 50 51 54 53 53 50 52
63 64 63 65 61 61 60 58 54 52 52 53 53 51 51 51 51 51 49 45 41 43 43 43 40 41 42 41 43 44 39 44 51 54 55 53 50 47 48 49 51 52 54
50 51 56 55 52 53 55 57 52 50 49 48 47 48 48 46 45 46 45 42 41 42 40 39 39 44 44 44 44 44 43 44 49 47 48 48 47 44 46 45 46 48 47
43 43 49 51 51 52 55 55 53 49 49 46 46 47 47 46 48 46 45 43 44 44 42 42 42 44 44 45 44 44 41 44 45 41 41 39 35 34 36 40 40 39 42
44 44 45 47 50 52 55 55 54 50 49 48 48 48 48 48 49 49 45 43 45 46 44 44 44 45 45 43 41 40 38 35 42 40 29 32 29 32 30 32 30 30 31
49 51 51 51 51 53 55 57 58 53 51 51 51 50 51 49 50 49 45 45 48 47 46 45 46 47 46 47 40 37 34 36 36 30 23 25 21 23 23 24 28 30 31
50 53 56 56 54 54 56 58 59 57 51 51 50 50 49 48 49 49 48 47 50 48 48 50 50 49 49 48 44 36 32 35 38 35 31 16 18 21 21 22 22 21 27
47 51 56 58 58 59 59 58 60 59 51 48 50 51 49 47 48 51 49 50 51 50 50 50 50 50 53 52 48 41 33 35 37 39 32 25 12 14 17 20 20 24 30
64 60 60 60 62 59 58 60 61 61 56 51 59 54 50 50 49 51 52 53 51 52 51 49 50 48 49 50 48 45 35 35 36 32 20 21 13 14 16 20 23 28 34
64 65 65 63 66 67 65 64 61 60 61 60 54 52 50 49 50 53 52 52 52 53 51 49 50 57 60 56 52 46 34 37 36 34 28 23 16 16 16 20 28 34 35
65 66 67 66 67 68 65 65 62 61 63 59 49 51 52 53 54 54 50 52 49 47 50 51 58 62 59 50 47 45 38 39 34 34 31 36 25 23 20 26 32 34 34
63 67 68 67 67 66 63 59 57 60 60 64 55 55 55 52 53 52 51 46 47 49 52 57 60 60 46 39 34 41 41 41 37 33 30 32 31 27 20 24 28 31 29
68 66 70 72 70 68 65 62 61 61 63 63 59 58 58 57 55 49 46 45 47 51 56 60 59 46 39 34 30 35 36 41 40 33 31 25 22 23 20 20 23 21 20
68 70 69 71 76 70 65 62 63 65 64 64 60 56 51 48 48 47 42 42 48 54 58 59 42 35 34 29 32 32 37 38 38 35 32 28 25 24 20 22 14 13 15
70 70 72 69 71 76 72 64 60 64 64 60 56 45 42 42 42 45 41 45 49 55 60 49 35 30 32 27 31 32 39 38 37 37 33 27 22 23 21 23 18 19 13
70 74 70 72 69 66 62 65 63 59 62 54 39 39 39 42 45 41 42 46 50 58 58 42 34 39 30 26 32 36 35 40 38 39 36 29 21 20 22 25 22 19 15
71 77 73 74 77 74 72 64 59 57 57 49 42 45 39 41 37 40 44 49 51 56 55 34 37 42 34 33 36 40 42 43 40 41 39 33 26 24 23 25 27 25 21
73 75 82 75 75 79 78 70 58 56 55 50 49 40 37 38 35 41 49 51 55 56 43 30 42 45 38 36 45 46 48 46 42 43 38 32 32 29 27 29 32 32 28
73 72 76 79 78 76 78 71 60 55 56 53 51 41 39 43 38 43 48 52 56 57 35 32 47 47 38 35 48 46 48 51 47 45 40 35 38 33 31 32 36 33 34
71 71 71 73 80 78 76 76 72 59 56 54 50 42 46 40 38 41 48 49 54 50 31 35 45 43 34 39 48 48 51 54 50 46 42 38 37 36 35 36 36 35 35
66 69 69 69 72 76 84 80 79 64 57 55 49 46 49 43 41 41 46 48 50 39 28 37 38 38 34 37 46 49 52 60 54 48 47 43 41 38 38 40 39 36 35
59 62 63 62 62 66 68 68 63 57 56 57 50 50 45 45 43 44 46 49 50 32 28 36 41 42 40 38 39 43 51 60 54 52 51 47 44 41 39 40 39 39 38
53 56 57 57 56 56 54 56 56 56 56 57 49 44 44 42 44 43 48 46 42 31 29 35 41 42 46 44 44 46 48 61 59 55 54 52 48 46 44 42 42 41 39
45 44 46 46 49 52 55 54 51 56 55 53 53 50 45 41 44 49 50 46 42 34 35 35 38 41 44 49 44 46 51 61 63 56 57 54 52 53 48 45 45 43 42

GFSSE_250_spd_102.txt.gz
Wind_Speed
81 83 83 82 80 80 79 78 77 76 75 73 73 71 68 67 66 63 62 63 63 64 65 65 65 63 61 61 61 60 60 62 59 58 61 63 58 56 57 52 54 55 57
76 79 82 86 82 82 82 80 80 79 76 75 73 70 67 63 62 62 61 61 64 63 62 62 61 59 57 55 53 52 53 54 55 56 55 53 54 57 55 57 57 53 53
56 58 62 69 73 74 77 79 77 76 75 71 69 67 64 60 58 57 58 61 59 57 58 55 54 52 51 47 48 47 49 50 50 51 49 55 49 47 49 52 57 52 47
48 48 51 57 63 66 65 66 68 69 68 65 60 61 60 57 53 52 54 57 56 53 51 50 43 42 42 43 43 45 47 48 51 51 51 52 46 48 46 44 47 46 47
44 46 48 53 56 58 57 59 61 61 59 59 55 51 51 52 52 51 51 52 49 47 48 44 42 42 40 41 41 43 44 46 47 47 51 49 45 45 43 37 35 39 40
39 43 46 52 55 56 53 54 57 58 57 54 50 50 48 49 49 49 49 50 49 45 41 41 41 43 44 44 45 45 45 41 42 41 43 47 43 42 39 33 32 31 32
41 42 44 49 53 53 53 53 54 55 55 55 51 52 52 52 50 49 49 49 51 47 42 39 44 45 47 46 46 45 45 43 38 37 35 35 31 28 26 28 29 29 31
45 44 47 50 52 55 54 54 56 56 56 55 52 53 55 54 51 51 51 53 58 46 43 43 45 47 46 46 45 44 42 40 37 34 29 29 22 22 24 25 26 29 22
49 47 47 50 51 52 55 56 58 59 59 58 54 56 55 55 54 56 55 55 55 46 46 47 47 49 48 48 45 44 43 45 41 30 25 26 26 23 25 24 26 21 15
51 54 50 48 49 52 47 51 57 63 62 59 57 56 55 56 59 58 56 53 48 47 50 49 50 48 49 48 47 46 45 44 36 33 24 21 14 21 24 22 24 18 17
54 55 58 57 55 56 59 59 55 59 61 64 62 62 57 58 61 60 55 53 51 55 55 52 50 49 48 43 44 48 48 47 46 37 31 28 21 24 23 23 21 19 19
56 57 53 54 59 63 65 63 60 57 60 65 64 61 62 63 65 60 57 57 58 55 54 51 45 45 44 46 52 57 56 51 45 35 32 32 22 24 23 19 21 20 25
58 60 60 59 56 63 66 67 65 62 60 61 61 63 61 62 60 60 58 54 55 55 49 48 44 42 45 53 58 56 49 41 34 32 33 31 27 27 21 25 23 22 25
57 57 57 60 64 62 63 64 65 66 63 62 58 56 57 55 56 56 55 56 54 53 53 41 41 43 48 56 57 48 36 28 30 27 34 35 34 30 33 25 26 24 24
57 58 59 57 60 63 67 64 64 65 63 61 59 58 56 54 55 56 56 53 51 46 41 40 41 44 53 56 45 33 34 27 34 31 37 37 35 30 30 30 34 20 21
55 56 58 58 60 65 66 69 65 64 62 63 60 59 56 54 55 52 54 51 43 39 39 40 39 46 52 51 42 30 29 31 38 40 42 37 36 34 28 27 24 17 15
60 65 59 62 61 64 69 70 69 63 64 62 63 60 55 53 52 50 45 39 38 37 39 39 42 49 51 48 37 28 30 34 38 41 39 36 37 35 34 31 23 23 21
65 67 67 66 64 61 66 72 68 67 62 61 59 65 61 54 50 44 40 40 37 38 40 42 44 49 51 41 36 28 33 33 40 37 42 44 40 37 38 26 27 23 25
73 74 71 68 62 60 61 70 68 64 61 60 52 54 60 54 47 46 41 39 32 35 39 45 48 51 48 37 37 35 38 39 36 34 40 46 43 40 36 29 25 23 25
79 80 74 67 62 60 62 66 68 67 63 65 61 55 53 51 47 47 44 37 36 38 38 46 48 52 40 33 35 35 43 47 40 41 44 46 45 40 36 33 28 23 28
82 80 78 70 65 65 62 68 70 66 67 64 64 60 53 51 48 45 43 35 38 35 40 44 44 46 33 34 33 39 42 47 43 41 42 47 48 41 36 31 28 27 32
86 82 73 66 65 64 61 65 72 73 71 65 63 62 54 52 51 50 41 34 37 37 41 43 44 41 30 34 35 40 39 46 48 52 52 50 48 42 36 34 32 30 31
83 75 74 69 63 61 61 65 69 73 73 70 63 59 60 54 53 56 51 44 40 41 38 41 39 33 30 38 30 38 45 41 54 52 53 52 48 44 39 38 38 35 35
72 71 68 66 63 63 63 63 64 68 72 71 70 66 61 51 53 53 48 41 39 41 42 42 41 29 35 36 32 36 48 50 54 51 52 52 50 48 42 40 42 40 36
67 71 66 66 63 66 63 63 64 67 68 70 71 61 54 54 58 54 50 36 38 41 42 41 36 30 36 36 37 34 45 54 52 51 55 53 55 50 46 45 43 43 40
66 65 64 60 59 61 59 58 57 58 59 62 62 59 59 54 55 49 48 35 34 40 41 40 40 31 37 42 37 38 42 53 56 52 53 56 58 56 53 49 48 45 43

GFSSE_250_spd_105.txt.gz
Wind_Speed
75 80 80 80 80 79 79 78 78 78 78 77 75 74 73 71 71 71 70 69 70 70 71 69 70 70 70 69 69 68 67 65 67 67 61 58 59 57 56 57 50 50 47
58 62 68 75 80 81 81 81 81 81 79 77 76 74 74 73 72 70 69 68 68 67 66 66 65 64 65 64 63 61 61 60 61 60 61 56 56 57 57 50 50 44 43
50 50 52 55 59 68 70 72 74 75 77 76 71 70 69 69 67 66 64 62 60 61 60 60 61 62 60 60 57 55 52 51 53 53 55 53 51 53 55 48 47 44 41
39 39 40 44 45 52 56 52 53 54 55 58 60 63 61 61 60 58 58 57 56 58 57 58 57 55 57 55 50 46 45 45 46 47 48 50 49 48 46 41 46 42 38
40 38 38 37 40 44 50 49 47 49 49 48 49 51 53 55 55 54 54 55 53 54 55 55 54 52 49 48 47 46 47 47 49 49 50 50 43 42 40 37 40 37 32
44 44 42 38 38 38 41 49 46 48 47 45 46 49 51 54 54 54 55 53 52 52 51 53 52 50 45 43 47 48 46 49 49 49 47 46 37 37 35 32 30 31 29
44 45 46 44 42 41 40 40 44 46 48 45 45 46 49 51 53 53 53 51 48 48 51 53 51 47 44 47 49 49 47 48 49 47 43 38 33 27 20 14 17 22 24
41 44 46 47 46 47 45 40 39 42 47 49 46 44 49 52 53 55 56 54 50 51 53 55 53 50 48 49 49 52 50 49 47 41 40 39 32 23 20 23 18 25 24
47 47 48 48 44 44 44 44 43 42 40 42 43 44 50 52 53 57 59 56 55 55 54 54 51 45 47 49 51 52 52 48 44 40 42 36 26 19 24 22 20 27 26
53 50 51 51 53 52 50 47 47 47 43 46 46 44 46 47 52 55 58 58 58 58 55 55 53 52 49 51 53 54 52 52 46 41 40 33 25 20 20 23 23 23 24
50 53 54 57 56 56 54 55 55 51 53 52 51 47 46 47 50 51 57 60 60 56 55 56 54 55 53 53 54 50 46 43 41 44 46 42 29 21 19 24 24 23 21
51 52 55 56 56 57 58 55 56 54 55 56 56 56 52 50 50 51 55 57 56 56 58 53 52 52 49 50 48 50 51 50 49 51 47 39 29 25 20 26 28 25 19
53 52 54 56 59 61 60 59 56 57 56 57 57 56 55 49 46 50 50 49 50 50 46 45 47 51 50 50 51 47 47 51 50 48 38 30 31 30 25 27 26 27 19
59 58 55 57 58 58 62 60 56 54 57 57 55 52 51 51 46 45 46 44 43 43 44 44 47 48 47 44 43 46 43 47 49 37 20 24 26 34 29 28 25 30 26
61 62 61 63 56 59 56 55 56 55 57 56 55 54 51 49 48 45 47 47 45 43 40 43 44 44 43 41 43 47 48 48 37 27 29 32 34 33 34 31 26 31 31
68 67 67 66 64 51 62 56 55 51 60 61 61 56 53 48 47 46 48 46 42 38 37 38 42 38 38 41 43 46 50 44 31 26 35 39 39 36 37 33 37 40 32
70 71 68 65 64 63 56 57 59 61 60 62 61 61 56 50 49 47 51 48 41 39 37 37 36 35 37 41 43 49 49 37 29 37 42 46 46 41 43 26 35 39 32
71 71 70 67 66 63 60 59 65 64 62 62 60 60 58 51 53 49 49 52 52 44 38 33 36 38 37 41 45 48 47 28 30 44 41 46 48 46 46 42 39 33 31
77 73 74 74 71 69 67 66 67 70 61 61 60 57 59 55 53 46 43 46 47 43 40 32 36 35 37 40 45 47 32 24 28 42 43 43 46 48 46 38 37 43 34
84 81 80 78 74 75 75 73 69 70 65 63 58 57 58 57 55 52 43 43 42 40 41 34 36 39 41 39 45 42 24 27 32 39 50 43 40 50 48 47 47 45 42
85 84 85 86 85 82 81 74 68 72 74 64 62 61 58 58 54 54 48 43 43 39 38 33 34 38 38 40 42 32 24 35 38 40 46 34 40 50 52 47 47 49 43
88 88 90 88 87 85 80 74 72 72 71 67 65 64 63 57 55 53 51 47 47 42 39 33 34 39 39 41 40 24 28 36 46 52 49 44 47 51 54 50 49 48 41
90 92 89 86 85 82 79 78 72 66 62 64 66 65 66 62 58 54 52 46 47 46 46 45 35 41 42 40 34 20 32 38 43 55 59 47 48 51 54 52 46 47 42
95 94 88 86 86 83 80 75 65 59 58 59 66 68 68 65 59 53 50 48 47 47 45 47 43 42 36 34 31 22 31 42 44 51 62 50 43 47 52 54 47 43 41
93 82 80 78 79 79 73 66 60 57 56 63 65 67 65 61 61 59 48 45 44 49 43 43 42 35 32 31 30 24 31 40 46 50 62 59 53 53 53 57 56 51 43
80 78 79 77 74 70 64 60 59 59 58 60 63 63 63 60 60 60 54 45 44 47 46 48 37 33 37 34 30 33 35 37 39 57 55 58 57 58 56 57 57 55 47

GFSSE_250_spd_111.txt.gz
Wind_Speed
58 60 61 62 65 67 69 72 75 78 80 80 80 78 79 80 81 80 78 77 75 75 76 75 73 74 75 73 71 68 68 67 65 64 63 62 63 64 59 54 50 49 46
46 49 49 52 55 59 64 62 63 65 66 67 68 71 71 73 72 69 69 72 73 72 71 69 69 67 68 65 63 61 60 57 58 57 56 58 57 55 51 44 48 46 44
40 43 44 45 47 50 49 48 49 52 58 61 61 59 56 57 58 62 61 62 64 65 65 64 59 60 60 59 59 54 51 53 55 53 56 54 51 49 47 41 42 40 41
39 41 43 41 42 43 44 45 45 44 43 45 48 52 54 52 48 46 48 51 51 53 55 56 57 56 57 58 55 51 51 52 53 54 53 50 46 44 43 38 43 44 39
37 37 38 39 39 38 39 42 43 42 42 41 42 43 43 44 45 42 41 43 42 44 49 51 54 54 56 56 53 52 51 50 53 52 47 45 42 42 42 41 41 42 38
38 37 37 38 37 37 37 36 37 39 40 42 42 40 39 39 40 40 38 38 39 40 41 45 48 52 53 54 54 52 48 50 52 47 44 42 42 40 44 42 43 41 35
42 41 39 41 41 40 40 39 40 41 40 39 39 39 41 40 38 38 37 35 35 37 39 41 41 42 49 51 50 46 49 46 47 46 43 39 39 39 44 46 45 39 29
44 41 42 43 40 41 40 39 41 44 43 42 41 40 40 38 41 40 38 36 32 35 36 37 38 39 43 48 51 49 48 47 50 45 42 40 37 39 44 44 32 24 24
41 44 44 41 39 38 37 37 37 35 36 39 42 44 45 44 45 43 41 38 39 40 38 40 38 35 40 44 46 47 47 50 48 47 42 39 39 40 38 26 21 18 21
46 47 47 44 45 42 40 35 37 38 35 37 37 39 41 47 48 48 48 46 48 46 45 40 40 38 38 40 42 45 44 45 46 44 42 38 36 36 33 29 31 25 26
50 51 52 51 50 45 44 44 44 42 40 40 39 41 37 38 44 49 47 49 51 53 48 46 45 41 41 41 40 38 38 38 41 40 35 33 36 37 29 31 33 28 26
53 56 55 55 53 50 50 50 46 46 46 44 41 41 41 41 41 43 46 48 50 55 56 55 50 46 46 41 40 36 33 32 36 36 35 29 32 34 28 26 22 19 23
58 59 58 55 50 54 53 50 50 53 52 50 47 44 46 43 43 37 39 44 49 50 53 56 54 49 45 40 36 31 33 33 38 36 33 29 27 29 21 17 18 14 21
58 57 58 56 52 58 55 51 54 56 58 55 54 50 47 46 42 46 52 54 53 48 47 48 45 44 40 36 33 34 34 34 35 34 31 28 31 31 26 19 21 12 21
59 61 58 57 59 56 54 56 57 58 60 58 57 56 52 49 48 49 53 52 51 46 44 44 39 39 35 33 30 33 33 33 35 33 33 31 32 31 25 28 25 19 37
63 63 60 61 61 57 62 62 59 58 60 61 61 59 58 54 54 52 53 51 49 49 46 44 40 37 37 30 29 29 32 32 31 30 34 34 34 32 25 40 37 30 31
66 66 63 61 61 64 67 64 62 64 61 64 64 63 62 60 58 58 55 53 54 50 45 43 43 33 35 34 29 28 30 31 30 32 35 36 39 33 28 48 45 42 36
66 65 67 66 66 67 66 68 70 66 66 68 67 66 65 65 63 60 60 58 59 53 46 41 41 33 33 33 33 34 31 30 29 33 36 35 36 38 40 54 44 30 34
71 71 72 73 72 70 70 72 73 72 71 72 70 69 68 68 67 65 64 62 59 60 48 42 41 33 31 31 28 30 32 35 33 31 35 39 39 41 54 61 53 43 42
74 75 74 73 73 74 74 76 77 74 73 73 73 72 71 71 71 70 67 66 64 61 54 43 44 36 37 32 30 33 35 37 36 33 33 38 45 33 65 65 49 48 35
79 78 77 76 76 76 77 78 78 78 76 76 76 77 76 73 72 69 69 69 68 62 58 47 47 42 42 32 35 37 37 41 42 36 34 38 37 36 67 66 50 51 45
80 80 80 79 80 80 81 80 80 81 81 82 82 83 79 77 77 77 75 78 73 67 59 52 48 45 44 38 35 35 38 40 40 38 41 40 31 51 65 67 51 47 42
79 81 82 83 83 84 84 85 85 87 86 84 86 84 82 82 81 83 81 76 73 67 61 53 52 49 45 44 38 35 39 43 43 40 42 40 33 61 64 66 57 48 47
81 82 84 84 85 86 87 89 90 90 90 90 88 88 87 88 88 86 83 75 71 68 64 53 54 54 48 42 42 40 41 42 45 43 41 35 41 63 66 63 64 56 46
86 86 86 87 88 91 91 91 92 93 94 93 93 92 91 90 87 85 78 73 72 71 69 60 57 56 47 46 47 42 42 44 45 39 35 34 43 56 69 71 67 65 49
92 91 90 92 93 94 93 94 92 92 89 89 92 92 90 89 85 86 80 76 74 71 70 63 59 58 47 47 46 41 43 45 41 35 36 32 45 53 63 70 73 73 65

GFSSE_250_spd_114.txt.gz
Wind_Speed
50 54 56 58 60 61 62 63 65 66 68 69 70 71 73 75 76 76 75 73 75 75 76 76 77 74 72 71 70 68 66 63 62 62 60 58 57 56 54 54 50 44 44
39 41 42 44 46 49 51 54 53 52 53 55 56 57 58 59 61 65 65 65 65 65 66 68 68 66 64 63 61 61 58 56 53 50 49 51 51 51 53 50 45 32 37
40 40 40 40 40 42 45 47 46 45 46 45 46 44 44 46 49 52 55 55 56 54 54 56 56 56 56 56 53 50 50 46 45 44 45 47 47 48 49 43 35 26 36
37 37 38 39 40 41 41 40 41 39 39 41 41 42 42 43 43 44 42 44 46 48 48 48 47 48 47 48 47 46 44 40 38 40 42 44 44 47 41 35 32 32 35
40 38 39 39 37 36 36 36 36 35 34 31 33 35 37 40 42 43 44 41 42 41 39 41 41 41 39 42 42 43 40 36 39 37 35 37 42 41 38 31 32 32 37
39 38 39 39 39 37 37 36 36 35 33 32 30 31 34 37 38 39 40 42 43 41 41 38 33 34 35 37 38 40 37 35 30 27 20 36 48 27 30 31 29 35 38
38 40 41 42 40 38 37 35 35 36 35 34 35 35 35 34 37 38 37 38 40 41 42 42 35 36 36 35 35 37 34 32 27 17 1 19 42 35 36 29 30 34 28
43 43 45 46 41 42 40 35 35 35 33 36 34 31 33 35 37 39 38 40 41 41 39 41 44 41 39 41 39 36 35 32 27 19 9 14 32 48 37 31 30 26 17
49 46 48 48 42 43 41 40 38 35 33 33 31 29 32 32 35 36 34 38 40 40 41 39 43 41 42 40 37 40 39 33 26 22 21 40 43 40 34 28 28 26 21
50 47 48 46 45 46 45 42 39 39 39 37 32 31 31 33 33 37 36 40 41 40 39 43 46 46 44 41 39 38 37 34 28 27 27 31 31 32 31 27 23 23 24
53 49 46 48 51 48 49 46 45 42 44 41 39 38 35 34 36 38 38 40 39 41 42 43 45 46 47 46 44 42 38 35 30 30 30 26 24 29 32 22 26 23 23
55 48 49 52 53 51 54 48 46 43 47 50 45 44 39 40 38 39 40 40 36 34 36 39 44 45 45 46 46 45 43 38 35 32 30 23 25 27 29 30 23 22 13
54 53 53 55 52 54 53 52 51 48 53 48 51 51 48 42 43 41 42 41 41 41 37 39 39 44 43 43 44 43 39 35 35 31 28 20 26 33 28 26 22 20 20
54 50 56 57 55 53 54 56 55 51 56 51 54 56 52 49 43 44 43 46 45 46 46 44 43 40 39 39 41 40 36 31 30 30 33 27 35 34 31 24 23 24 23
61 58 54 50 61 64 59 57 57 56 56 55 59 58 55 54 50 47 47 47 48 48 49 48 45 43 42 39 41 39 34 33 29 29 33 34 38 30 29 29 31 27 26
61 58 58 60 61 58 67 63 62 58 56 58 62 59 57 57 55 55 52 49 50 51 50 49 48 47 47 40 39 38 37 31 31 32 30 32 31 29 30 29 31 34 35
64 62 59 61 60 57 62 65 64 63 59 60 63 61 62 62 60 61 58 55 53 50 51 51 50 52 50 44 37 38 37 35 31 28 29 32 31 32 33 31 27 40 43
66 63 63 66 64 61 62 66 67 64 63 63 64 65 66 66 66 65 62 60 58 55 52 54 52 53 52 48 37 37 40 37 34 30 31 31 33 34 32 31 27 39 47
68 62 63 67 70 71 72 72 71 70 68 70 67 67 67 70 70 69 70 67 61 60 56 55 57 54 52 53 41 38 36 38 36 33 33 27 28 30 32 35 30 35 51
71 70 67 67 71 73 75 76 76 77 76 71 68 69 68 72 71 72 69 70 67 63 64 59 61 56 57 56 46 40 36 36 33 34 36 30 30 27 33 36 38 40 60
76 74 74 72 71 73 76 77 75 76 75 73 70 71 71 72 75 74 74 70 73 71 69 64 60 61 62 60 46 45 40 38 34 35 35 33 32 28 34 42 38 45 59
79 78 77 74 75 75 75 76 77 77 76 74 71 70 73 73 74 76 78 76 75 76 71 66 62 68 67 62 46 45 44 40 33 34 37 35 32 35 38 39 39 53 61
79 81 81 80 79 79 78 77 77 76 76 76 77 77 77 78 77 74 81 80 76 74 74 72 70 71 72 60 47 46 48 45 38 33 37 36 37 38 39 39 39 61 59
79 83 83 83 82 81 81 79 78 78 76 78 78 79 80 82 82 77 79 85 82 81 78 77 75 72 69 61 47 49 53 47 43 37 41 40 41 41 41 37 40 56 62
82 85 84 84 86 84 83 82 82 81 81 80 82 82 83 84 86 84 83 84 88 89 83 79 77 74 71 66 49 51 54 51 48 43 41 40 42 42 38 36 45 52 62
85 85 86 87 87 86 86 87 87 87 87 87 87 88 88 89 86 84 82 84 89 90 85 83 78 74 69 64 49 50 55 54 52 46 40 42 44 41 39 36 46 54 62

GFSSE_250_spd_117.txt.gz
Wind_Speed
35 35 35 37 40 44 47 49 51 54 55 57 58 61 63 66 67 66 67 68 70 68 68 69 66 67 72 69 67 64 65 63 62 57 54 51 50 48 46 45 46 46 45
31 30 32 32 35 37 38 39 42 44 46 48 50 51 51 53 54 54 54 56 54 56 57 57 59 59 60 61 59 56 53 55 51 47 45 44 43 42 44 39 40 40 36
37 34 37 35 34 36 36 37 38 40 42 44 45 47 47 47 47 47 47 48 48 49 47 47 49 49 51 52 52 53 53 49 45 41 38 36 35 33 31 30 38 35 26
39 39 37 38 37 35 34 34 34 34 36 36 38 40 39 40 41 43 43 42 41 41 42 41 43 43 44 45 45 44 44 43 41 38 36 34 26 23 29 33 32 29 25
40 39 38 36 34 32 32 33 34 33 34 32 31 31 34 35 36 36 37 37 36 37 37 36 38 41 40 41 40 40 40 38 34 34 24 11 24 29 31 29 24 26 25
42 43 38 35 33 34 33 34 35 35 34 32 31 30 31 32 34 35 34 34 35 35 36 35 35 36 37 38 40 44 42 39 36 27 16 15 11 25 27 23 35 38 32
39 43 39 42 39 38 37 36 36 33 32 32 30 30 29 28 29 31 32 33 34 36 36 37 38 36 35 38 40 40 37 37 35 28 19 17 12 18 21 34 33 31 27
44 48 45 44 41 41 41 40 36 34 32 31 32 29 30 29 28 29 30 31 33 32 35 38 40 38 36 34 35 36 37 38 30 27 21 19 22 26 23 32 39 32 26
50 48 46 48 46 39 39 39 36 37 35 33 34 33 30 32 33 32 30 32 32 33 33 33 34 39 38 38 39 39 37 37 30 25 24 29 24 14 28 36 34 29 20
49 49 44 45 47 43 41 39 38 39 39 37 38 36 34 38 36 34 35 33 33 35 34 33 31 32 35 35 37 40 42 39 32 27 25 36 29 30 34 35 29 24 17
49 45 47 46 48 45 39 40 41 43 42 38 41 38 37 40 40 40 38 36 36 37 35 33 31 27 31 36 38 37 38 40 38 29 30 31 36 33 35 39 25 21 19
56 49 47 50 44 45 41 40 42 44 46 47 44 45 42 44 41 42 43 40 37 37 37 37 35 33 31 31 31 36 36 33 36 39 35 32 31 34 35 35 31 28 23
55 52 49 51 52 46 42 48 44 44 44 46 49 47 47 47 45 47 45 44 37 41 40 39 39 37 37 35 30 32 33 31 31 35 37 34 33 33 35 31 26 32 28
57 52 52 50 46 54 54 50 47 50 53 54 54 51 51 49 49 50 48 42 41 42 43 42 43 42 38 37 36 32 33 35 31 32 30 29 35 33 32 34 31 33 26
53 51 50 54 57 56 57 51 56 50 48 51 52 56 57 49 51 50 49 48 47 45 45 46 46 44 42 40 39 38 34 36 32 35 33 33 34 36 35 38 36 35 29
52 51 48 52 61 61 57 55 52 56 58 56 50 53 55 57 55 54 52 52 50 50 49 46 49 49 49 46 43 38 36 35 35 34 36 34 39 39 40 42 39 36 33
58 55 55 55 55 61 59 53 50 37 42 46 46 47 52 57 62 58 56 56 56 53 52 49 50 54 54 52 48 45 37 38 36 35 38 40 39 39 38 40 39 39 33
56 61 63 62 60 60 57 52 52 39 46 56 54 61 71 71 69 65 62 62 60 57 52 50 51 54 54 53 52 49 41 38 36 37 41 41 39 40 42 41 40 37 35
68 67 68 63 65 65 60 58 54 59 68 72 68 70 68 73 73 71 67 66 62 57 55 55 55 59 59 56 56 54 49 40 38 42 43 43 41 41 40 39 36 37 38
78 77 69 67 64 68 68 62 63 65 71 72 71 67 71 76 75 72 74 70 65 60 59 61 61 62 60 60 58 58 55 43 44 43 46 46 45 40 37 32 34 37 38
79 84 73 64 69 74 71 70 69 71 73 74 74 73 76 74 68 71 71 69 64 60 68 63 62 64 63 61 60 53 56 53 47 43 45 45 46 42 39 34 31 34 36
81 87 82 76 71 74 75 74 74 75 76 76 77 78 78 77 74 71 69 62 62 58 54 64 60 62 66 66 65 59 59 60 52 42 50 47 46 48 40 36 36 35 43
87 89 84 82 77 73 75 79 78 78 80 81 79 77 78 75 74 76 74 70 67 62 45 64 61 68 65 66 67 67 64 63 55 46 52 50 44 46 43 39 33 38 38
93 90 86 83 80 78 78 78 81 81 80 81 82 81 79 79 77 77 72 70 70 66 64 55 57 78 75 76 72 72 71 67 62 49 51 53 44 44 42 40 35 39 38
91 91 88 83 84 83 81 82 80 83 85 83 82 81 82 81 79 78 75 74 72 72 67 68 73 77 80 76 72 73 71 68 66 53 51 56 47 47 43 40 37 36 38
88 91 90 89 87 85 85 85 84 83 87 87 86 83 83 83 81 80 82 79 76 72 71 73 75 79 81 77 77 69 72 69 65 57 52 59 52 48 44 44 41 36 38

GFSSE_250_spd_123.txt.gz
Wind_Speed
40 34 32 33 32 32 32 37 39 39 38 37 39 41 43 42 41 43 45 46 47 49 50 51 51 51 53 54 55 56 55 55 54 53 51 47 44 43 41 40 43 36 34
32 29 29 31 31 32 33 34 34 36 35 35 32 34 36 38 38 38 40 42 44 43 44 46 47 48 50 51 52 52 52 50 50 49 45 39 37 30 25 24 24 22 17
29 32 33 32 30 29 29 31 33 34 33 31 29 30 31 33 34 35 36 37 39 39 40 41 41 42 43 44 46 47 47 47 47 44 37 32 29 23 13 16 18 22 24
32 34 34 33 32 30 29 27 29 31 30 29 30 31 30 31 32 33 32 31 31 32 33 35 35 36 36 38 38 39 40 40 38 37 33 30 25 23 23 22 21 24 21
34 34 35 37 37 35 31 29 30 30 31 32 30 31 33 31 32 31 31 32 29 31 29 30 32 32 33 36 36 37 38 38 36 33 30 25 24 25 29 26 25 21 20
39 37 35 35 38 39 36 32 32 32 34 35 36 34 33 32 32 31 30 30 31 33 32 31 31 31 32 34 36 38 39 36 34 32 28 25 25 27 31 35 35 32 23
41 41 41 38 38 38 40 37 35 32 35 37 36 35 33 31 30 29 30 29 29 30 30 32 32 32 32 34 36 35 35 33 31 32 32 24 26 29 31 35 41 36 32
49 50 50 49 48 44 40 42 39 38 39 37 34 33 33 32 33 32 32 33 30 30 33 35 32 34 36 35 35 35 34 34 33 34 34 32 27 28 32 31 38 39 32
45 47 50 51 50 48 46 46 45 42 40 40 37 36 34 34 34 35 34 35 35 31 34 37 36 36 37 35 31 31 32 33 33 33 34 31 31 31 29 31 34 40 33
51 46 47 50 48 49 51 50 50 47 46 43 42 36 35 33 34 33 37 38 38 39 35 37 37 39 39 36 33 32 32 31 31 31 33 31 30 31 32 32 30 35 38
55 50 51 58 55 49 52 52 51 49 49 48 44 41 38 41 36 35 34 36 36 39 39 40 37 37 41 41 36 33 31 32 29 28 26 29 34 35 35 36 35 35 35
54 53 55 53 50 49 51 54 52 51 51 50 48 46 47 48 45 40 39 38 37 39 40 43 41 34 37 43 43 38 34 33 33 30 31 29 31 34 34 37 36 33 36
60 59 54 50 47 48 51 55 56 53 53 50 51 50 51 56 51 46 42 39 38 39 41 44 40 34 35 42 47 45 41 36 34 34 32 33 32 32 35 40 40 36 37
60 55 52 50 48 47 51 52 55 53 52 48 44 45 50 54 52 47 45 42 39 39 41 38 41 45 48 47 45 49 45 41 37 35 31 37 35 35 33 34 44 41 38
58 56 53 48 52 51 45 53 54 41 42 50 53 42 49 49 52 47 45 41 38 40 45 40 39 51 51 48 51 47 46 44 42 38 32 35 39 37 37 35 39 41 40
53 52 51 51 53 55 56 49 49 49 34 35 48 55 49 45 44 45 42 45 45 48 43 38 43 48 51 53 53 51 47 44 42 41 39 36 38 38 38 34 36 37 35
54 54 55 56 57 60 60 56 51 54 50 48 53 52 54 41 39 43 46 47 46 45 43 40 38 43 42 43 45 49 45 39 37 35 37 39 37 36 34 33 33 43 42
67 64 65 67 63 63 65 68 67 60 62 65 55 51 43 53 54 48 41 38 36 37 38 44 44 40 41 44 51 52 42 38 32 35 38 39 38 36 31 34 34 38 47
77 76 76 75 76 74 72 72 75 72 63 70 75 70 61 54 56 54 41 46 41 30 34 40 46 43 40 46 49 48 36 36 38 42 44 46 42 38 33 31 37 36 43
83 85 88 86 86 84 83 82 81 81 74 63 75 78 79 60 59 48 47 42 35 34 39 40 53 54 47 39 38 43 42 42 45 50 49 52 50 46 38 39 42 42 38
94 94 95 96 97 96 95 92 90 89 88 81 72 77 82 78 74 55 46 49 45 47 43 44 51 52 59 50 39 39 36 38 45 50 53 54 57 47 51 51 51 44 37
103 103 104 103 104 104 102 103 101 97 94 90 79 79 74 86 77 75 63 57 44 39 47 47 61 64 54 46 48 46 46 40 42 49 60 57 57 54 62 61 53 47 45
107 107 107 107 105 106 107 106 103 102 97 92 89 82 82 74 80 81 87 84 72 61 52 64 65 56 48 48 46 45 45 51 58 49 53 59 58 61 64 66 57 53 51
108 103 98 98 98 97 98 101 102 103 98 92 92 90 85 84 76 84 90 92 86 81 79 74 71 69 64 55 56 45 51 55 55 53 63 67 63 67 70 67 57 55 53
96 88 85 80 85 87 87 90 96 101 101 98 96 93 89 86 81 83 90 93 93 90 92 84 79 71 73 55 56 51 67 59 62 59 51 53 68 66 71 69 57 56 56
81 77 75 75 73 77 79 86 91 99 102 102 98 95 92 93 88 87 88 97 98 101 103 98 89 74 75 72 75 71 74 72 72 63 70 66 65 69 70 74 66 60 60